When you browse on this site, cookies collect data to enhance your experience and personalize the content and advertising you see.
Visit our Privacy Policy to learn more. By continuing to use the site, you agree to this use of cookies and data.
  • In Sweden
  • List of Countries
  • For 7 days
  • Water Temperature
  • Satellite Maps
  • Weather Map
  • Weather Widgets
  • user-avatar
    Login

    Hourly Weather Kociszew

    Today, 27 May, Monday

    Time Temperature Precipitation Wind Pressure Humidity
    00:00 +14°C° 0 mm 3 mps 741 mmHg 86%
    01:00 +13°C° 0 mm 3 mps 741 mmHg 87%
    02:00 +13°C° 0 mm 3 mps 741 mmHg 89%
    03:00 +13°C° 0 mm 3 mps 740 mmHg 90%
    04:00 +13°C° 0 mm 3 mps 740 mmHg 91%
    05:00 +14°C° 0 mm 4 mps 740 mmHg 86%
    06:00 +17°C° 0 mm 4 mps 740 mmHg 80%
    07:00 +19°C° 0 mm 5 mps 740 mmHg 74%
    08:00 +20°C° 0 mm 5 mps 740 mmHg 67%
    09:00 +22°C° 0 mm 5 mps 740 mmHg 60%
    10:00 +23°C° 0 mm 6 mps 740 mmHg 54%
    11:00 +25°C° 0.1 mm 5 mps 740 mmHg 53%
    12:00 +25°C° 0.1 mm 5 mps 739 mmHg 53%
    13:00 +26°C° 0.1 mm 4 mps 739 mmHg 52%
    14:00 +25°C° 0.5 mm 4 mps 739 mmHg 55%
    15:00 +25°C° 0.5 mm 3 mps 739 mmHg 57%
    16:00 +25°C° 0.5 mm 3 mps 739 mmHg 59%
    17:00 +24°C° 0.1 mm 3 mps 738 mmHg 64%
    18:00 +23°C° 0.1 mm 2 mps 738 mmHg 69%
    19:00 +21°C° 0.1 mm 1 mps 738 mmHg 74%
    20:00 +20°C° 0.5 mm 2 mps 738 mmHg 78%
    21:00 +19°C° 0.5 mm 2 mps 738 mmHg 82%
    22:00 +18°C° 0.5 mm 2 mps 738 mmHg 86%
    23:00 +17°C° 0.2 mm 2 mps 737 mmHg 87%

    Tomorrow, 28 May, Tuesday

    Time Temperature Precipitation Wind Pressure Humidity
    00:00 +17°C° 0.2 mm 2 mps 737 mmHg 88%
    01:00 +17°C° 0.2 mm 2 mps 736 mmHg 89%
    02:00 +17°C° 2.5 mm 2 mps 736 mmHg 91%
    03:00 +17°C° 2.5 mm 3 mps 736 mmHg 93%
    04:00 +17°C° 2.5 mm 3 mps 736 mmHg 94%
    05:00 +17°C° 0.1 mm 4 mps 735 mmHg 89%
    06:00 +17°C° 0.1 mm 6 mps 735 mmHg 84%
    07:00 +17°C° 0.1 mm 7 mps 735 mmHg 79%
    08:00 +17°C° 0 mm 7 mps 735 mmHg 78%
    09:00 +19°C° 0 mm 6 mps 735 mmHg 76%
    10:00 +19°C° 0 mm 6 mps 735 mmHg 75%
    11:00 +20°C° 0.1 mm 6 mps 735 mmHg 72%
    12:00 +21°C° 0.1 mm 5 mps 735 mmHg 68%
    13:00 +22°C° 0.1 mm 5 mps 735 mmHg 65%
    14:00 +22°C° 0.9 mm 4 mps 735 mmHg 68%
    15:00 +21°C° 0.9 mm 4 mps 735 mmHg 71%
    16:00 +21°C° 0.9 mm 3 mps 735 mmHg 75%
    17:00 +19°C° 1.5 mm 3 mps 735 mmHg 80%
    18:00 +18°C° 1.5 mm 4 mps 736 mmHg 85%
    19:00 +17°C° 1.5 mm 4 mps 736 mmHg 91%
    20:00 +15°C° 0.8 mm 5 mps 736 mmHg 91%
    21:00 +14°C° 0.8 mm 6 mps 737 mmHg 92%
    22:00 +12°C° 0.8 mm 7 mps 737 mmHg 93%
    23:00 +11°C° 0.6 mm 6 mps 738 mmHg 93%

    Day after tomorrow, 29 May, Wednesday

    Time Temperature Precipitation Wind Pressure Humidity
    00:00 +10°C° 0.6 mm 6 mps 738 mmHg 93%
    01:00 +10°C° 0.6 mm 6 mps 739 mmHg 93%
    02:00 +9°C° 0.5 mm 6 mps 739 mmHg 92%
    03:00 +9°C° 0.5 mm 6 mps 740 mmHg 91%
    04:00 +8°C° 0.5 mm 6 mps 741 mmHg 90%
    05:00 +8°C° 0 mm 5 mps 741 mmHg 87%
    06:00 +9°C° 0 mm 5 mps 742 mmHg 85%
    07:00 +9°C° 0 mm 5 mps 743 mmHg 82%
    08:00 +10°C° 0 mm 5 mps 743 mmHg 77%
    09:00 +12°C° 0 mm 5 mps 744 mmHg 71%
    10:00 +14°C° 0 mm 5 mps 744 mmHg 66%
    11:00 +14°C° 0 mm 5 mps 744 mmHg 63%
    12:00 +15°C° 0 mm 5 mps 745 mmHg 61%
    13:00 +16°C° 0 mm 5 mps 745 mmHg 58%
    14:00 +16°C° 0 mm 5 mps 745 mmHg 58%
    15:00 +17°C° 0 mm 4 mps 745 mmHg 58%
    16:00 +17°C° 0 mm 4 mps 745 mmHg 58%
    17:00 +15°C° 0 mm 4 mps 745 mmHg 63%
    18:00 +14°C° 0 mm 3 mps 745 mmHg 68%
    19:00 +13°C° 0 mm 3 mps 745 mmHg 73%
    20:00 +12°C° 0 mm 3 mps 746 mmHg 75%
    21:00 +12°C° 0 mm 2 mps 746 mmHg 77%
    22:00 +10°C° 0 mm 2 mps 747 mmHg 79%
    23:00 +10°C° 0 mm 2 mps 747 mmHg 79%

    30 May, Thursday

    Time Temperature Precipitation Wind Pressure Humidity
    00:00 +9°C° 0 mm 2 mps 747 mmHg 78%
    01:00 +8°C° 0 mm 2 mps 747 mmHg 77%
    02:00 +8°C° 0 mm 2 mps 747 mmHg 77%
    03:00 +7°C° 0 mm 2 mps 747 mmHg 77%
    04:00 +7°C° 0 mm 2 mps 747 mmHg 77%
    05:00 +8°C° 0 mm 2 mps 747 mmHg 73%
    06:00 +10°C° 0 mm 2 mps 748 mmHg 68%
    07:00 +12°C° 0 mm 1 mps 748 mmHg 64%
    08:00 +13°C° 0 mm 1 mps 748 mmHg 62%
    09:00 +14°C° 0 mm 1 mps 748 mmHg 59%
    10:00 +14°C° 0 mm 1 mps 748 mmHg 57%
    11:00 +15°C° 0 mm 1 mps 748 mmHg 54%
    12:00 +18°C° 0 mm 1 mps 748 mmHg 51%
    13:00 +19°C° 0 mm 1 mps 748 mmHg 49%
    14:00 +19°C° 0 mm 1 mps 747 mmHg 47%
    15:00 +20°C° 0 mm 1 mps 747 mmHg 46%
    16:00 +20°C° 0 mm 1 mps 747 mmHg 45%
    17:00 +19°C° 0 mm 1 mps 747 mmHg 50%
    18:00 +18°C° 0 mm 1 mps 747 mmHg 55%
    19:00 +16°C° 0 mm 2 mps 747 mmHg 61%
    20:00 +15°C° 0 mm 2 mps 747 mmHg 60%
    21:00 +13°C° 0 mm 2 mps 747 mmHg 60%
    22:00 +12°C° 0 mm 2 mps 747 mmHg 60%
    23:00 +12°C° 0 mm 2 mps 747 mmHg 60%

    31 May, Friday

    Time Temperature Precipitation Wind Pressure Humidity
    00:00 +10°C° 0 mm 2 mps 747 mmHg 61%
    01:00 +10°C° 0 mm 2 mps 747 mmHg 61%
    02:00 +11°C° 0 mm 1 mps 747 mmHg 64%
    03:00 +10°C° 0 mm 1 mps 747 mmHg 66%
    04:00 +10°C° 0 mm 1 mps 746 mmHg 69%
    05:00 +12°C° 0 mm 1 mps 746 mmHg 67%
    06:00 +14°C° 0 mm 1 mps 746 mmHg 65%
    07:00 +16°C° 0 mm 1 mps 746 mmHg 63%
    08:00 +18°C° 0 mm 1 mps 746 mmHg 59%
    09:00 +20°C° 0 mm 1 mps 746 mmHg 56%
    10:00 +21°C° 0 mm 1 mps 745 mmHg 52%
    11:00 +22°C° 0 mm 1 mps 745 mmHg 50%
    12:00 +23°C° 0 mm 1 mps 745 mmHg 49%
    13:00 +24°C° 0 mm 1 mps 744 mmHg 48%
    14:00 +24°C° 0.1 mm 1 mps 744 mmHg 51%
    15:00 +23°C° 0.1 mm 2 mps 744 mmHg 54%
    16:00 +23°C° 0.1 mm 2 mps 744 mmHg 56%
    17:00 +21°C° 0.8 mm 3 mps 744 mmHg 66%
    18:00 +19°C° 0.8 mm 3 mps 744 mmHg 76%
    19:00 +18°C° 0.8 mm 3 mps 744 mmHg 86%
    20:00 +17°C° 0.9 mm 4 mps 744 mmHg 88%
    21:00 +16°C° 0.9 mm 5 mps 745 mmHg 91%
    22:00 +15°C° 0.9 mm 5 mps 745 mmHg 93%
    23:00 +14°C° 0.7 mm 5 mps 745 mmHg 93%

    1 June, Saturday

    Time Temperature Precipitation Wind Pressure Humidity
    00:00 +14°C° 0.7 mm 6 mps 745 mmHg 93%
    01:00 +13°C° 0.7 mm 6 mps 746 mmHg 93%
    02:00 +13°C° 0.5 mm 6 mps 746 mmHg 93%
    03:00 +11°C° 0.5 mm 6 mps 746 mmHg 93%
    04:00 +10°C° 0.5 mm 6 mps 746 mmHg 93%
    05:00 +10°C° 0.1 mm 6 mps 747 mmHg 93%
    06:00 +10°C° 0.1 mm 7 mps 747 mmHg 92%
    07:00 +10°C° 0.1 mm 7 mps 748 mmHg 92%
    08:00 +10°C° 0 mm 6 mps 748 mmHg 90%
    09:00 +10°C° 0 mm 6 mps 749 mmHg 88%
    10:00 +10°C° 0 mm 6 mps 749 mmHg 86%
    11:00 +12°C° 0 mm 7 mps 749 mmHg 79%
    12:00 +14°C° 0 mm 7 mps 749 mmHg 71%
    13:00 +15°C° 0 mm 7 mps 749 mmHg 63%
    14:00 +16°C° 0 mm 7 mps 749 mmHg 61%
    15:00 +16°C° 0 mm 7 mps 749 mmHg 58%
    16:00 +16°C° 0 mm 7 mps 749 mmHg 55%
    17:00 +15°C° 0 mm 6 mps 750 mmHg 59%
    18:00 +13°C° 0 mm 6 mps 750 mmHg 62%
    19:00 +12°C° 0 mm 5 mps 750 mmHg 65%
    20:00 +10°C° 0 mm 5 mps 750 mmHg 64%
    21:00 +9°C° 0 mm 5 mps 751 mmHg 63%
    22:00 +8°C° 0 mm 5 mps 751 mmHg 61%
    23:00 +7°C° 0 mm 5 mps 751 mmHg 64%
    Show more